#timestamp,LO_Frequency,Hit,StdDev 
1637535615.8,286046999.8,N
1637535635.6,286047000.0,N
1637535655.5,286047002.8,N
1637535675.3,286047002.2,N
1637535695.1,286046999.7,N
1637535715.9,286047000.0,N
1637535735.7,286047001.6,N
1637535755.6,286047002.5,N
1637535775.4,286047001.9,N
1637535795.2,286047002.0,N
1637535815.1,286047001.9,N
1637535816.0,286047001.9,N
1637535835.8,286047002.0,N
1637535855.7,286047000.0,N
1637535875.5,286047000.6,N
1637535895.3,286047000.8,N
1637535915.2,286047000.3,N
1637535935.9,286047002.6,N
1637535955.7,286047002.0,N
1637535975.6,286047001.3,N
1637535995.4,286047001.9,N
1637536015.3,286047003.1,Y
1637536035.1,286047001.4,P
1637536036.0,286047001.4,P
1637536055.8,286047004.3,P
1637536075.7,286047003.6,N
1637536095.5,286047001.7,N
1637536115.3,286047002.7,N
1637536135.2,286047001.5,N
1637536155.0,286047002.1,N
1637536155.9,286047002.1,N
1637536175.8,286047002.1,N
1637536195.6,286047001.3,N
1637536215.5,286047004.0,Y
1637536235.3,286047000.6,P
1637536255.1,286047001.0,N
1637536275.9,286046997.2,P
1637536295.7,286046996.6,N
1637536315.6,286046997.0,N
1637536335.4,286046999.6,N
1637536355.2,286046998.7,N
1637536375.1,286046998.2,N
1637536376.0,286046998.2,N
1637536395.8,286046999.4,N
1637536415.7,286046998.9,N
1637536435.5,286046999.3,N
1637536455.3,286046998.9,N
1637536475.2,286046999.2,N
1637536495.0,286046999.3,N
1637536495.9,286046999.3,N
1637536515.7,286046998.7,N
1637536535.6,286046998.2,N
1637536555.4,286046999.0,N
1637536575.3,286046997.1,N
1637536595.1,286046996.8,N
1637536615.8,286046997.2,N
1637536635.7,286046997.2,N
1637536655.5,286046997.8,N
1637536675.4,286046997.0,N
1637536695.2,286046997.9,N
1637536715.0,286046997.1,N
1637536716.0,286046997.1,N
1637536735.8,286046996.8,N
1637536755.6,286046997.0,N
1637536775.5,286046997.9,N
1637536795.3,286046996.9,N
1637536815.1,286046998.9,N
1637536835.9,286046999.4,N
1637536855.7,286046996.7,Y
1637536875.6,286047000.3,P
1637536895.4,286046999.9,N
1637536915.2,286046999.9,N
1637536935.1,286047000.2,N
1637536936.0,286047000.2,N
1637536955.8,286047000.1,N
1637536975.6,286047002.2,Y
1637536995.5,286047001.9,P
1637537015.3,286047001.8,N
1637537035.2,286047001.9,N
1637537055.9,286047001.6,N
1637537075.7,286047001.4,N
1637537095.6,286047004.4,Y
1637537115.4,286046999.7,P
1637537135.3,286047000.3,N
1637537155.1,286046999.8,N
1637537156.0,286046999.8,N
1637537175.8,286047002.4,Y
1637537195.7,286046999.7,P
1637537215.5,286047002.3,P
1637537235.4,286047002.3,N
1637537255.2,286047002.6,N
1637537275.0,286047000.7,N
1637537275.9,286047000.7,N
1637537295.8,286047000.5,N
1637537315.6,286047001.1,N
1637537335.4,286046998.1,N
1637537355.3,286047001.1,N
1637537375.1,286046998.6,N
1637537395.9,286047000.0,N
1637537415.7,286047000.6,N
1637537435.5,286047000.5,N
1637537455.4,286046999.9,N
1637537475.2,286047000.2,N
1637537495.0,286047002.5,N
1637537495.9,286047002.5,N
1637537515.8,286047002.8,N
1637537535.6,286047000.8,N
1637537555.5,286047000.7,N
1637537575.3,286046998.5,N
1637537595.1,286046998.1,N
1637537615.9,286047000.8,N
1637537635.7,286047000.7,N
1637537655.5,286047000.8,N
1637537675.4,286047000.4,N
1637537695.2,286047000.3,N
1637537715.1,286046999.9,N
1637537716.0,286046999.9,N
1637537735.8,286047002.2,N
1637537755.6,286047001.4,N
1637537775.5,286047001.5,N
1637537795.3,286047004.2,Y
1637537815.2,286047001.7,P
1637537835.9,286047001.3,N
1637537855.7,286047002.4,P
1637537875.7,286047000.1,N
1637537895.5,286047000.3,N
1637537915.4,286047000.1,N
1637537935.2,286046999.9,N
1637537955.0,286047001.1,N
1637537955.9,286047001.1,N
1637537975.8,286047000.1,N
1637537995.6,286046999.8,N
1637538015.5,286047000.3,N
1637538035.3,286047002.1,N
1637538055.1,286047002.6,Y
1637538075.9,286046999.8,P
1637538095.7,286046999.8,N
1637538115.6,286047002.8,P
1637538135.4,286047002.8,N
1637538155.2,286047002.8,N
1637538175.1,286047000.4,N
1637538176.0,286047000.4,N
1637538195.8,286046998.8,N
1637538215.7,286046998.1,N
1637538235.5,286047001.0,N
1637538255.3,286047000.1,N
1637538275.2,286046999.9,N
1637538295.0,286047000.7,N
1637538295.9,286047000.7,N
1637538315.7,286046998.7,N
1637538335.6,286046998.1,N
1637538355.4,286047000.9,N
1637538375.3,286047000.8,N
1637538395.1,286047002.8,N
1637538396.0,286047002.8,N
1637538415.8,286046999.8,N
1637538435.7,286047002.2,N
1637538455.5,286047002.1,N
1637538475.3,286047000.6,N
1637538495.2,286046998.1,N
1637538515.0,286047000.9,N
1637538515.9,286047000.9,N
1637538535.8,286046996.8,N
1637538555.6,286046998.6,N
1637538575.5,286047000.4,N
1637538595.3,286047000.2,N
1637538615.1,286047002.6,N
1637538635.9,286047002.8,N
1637538655.7,286046999.7,N
1637538675.5,286047002.6,N
1637538695.4,286047002.6,N
1637538715.2,286047002.7,N
1637538735.0,286047000.2,N
1637538736.0,286047000.2,N
1637538755.8,286047000.7,N
1637538775.6,286047000.7,N
1637538795.5,286046998.3,N
1637538815.3,286046998.4,N
1637538835.1,286046999.1,N
1637538855.9,286046998.3,N
1637538875.7,286046998.6,N
1637538895.6,286046998.5,N
1637538915.4,286046996.6,N
1637538935.2,286046999.3,N
1637538955.1,286046998.2,N
1637538956.0,286046998.2,N
1637538975.8,286047000.7,N
1637538995.7,286046998.5,N
1637539015.5,286047001.2,N
1637539035.3,286046999.0,N
1637539055.2,286046996.5,N
1637539075.9,286047000.6,N
1637539095.7,286047000.4,N
1637539115.6,286047000.5,N
1637539135.4,286047000.5,N
1637539155.3,286047000.4,N
1637539175.1,286047002.3,N
1637539176.0,286047002.3,N
1637539195.8,286047002.8,N
